Theta_e
353 354 350 345 344 344 343 343 344 345 346 346 345 344 343 345 346 347 347 346 346 345 343 342 341 341 339 337 337 339 345 345
351 352 352 353 353 343 341 341 341 342 343 342 340 340 341 342 343 344 345 345 344 343 341 340 340 338 337 335 335 337 344 344
347 348 349 350 349 348 343 342 341 340 342 340 339 348 346 345 342 341 343 343 342 341 339 337 335 334 335 335 335 343 343 342
344 347 347 348 344 346 349 348 350 350 350 351 349 349 347 343 341 339 340 341 340 339 337 335 336 345 343 337 344 344 343 342
342 344 346 346 344 344 345 346 347 348 350 349 349 348 347 344 343 341 344 340 343 341 342 346 345 343 343 344 345 346 344 341
340 342 344 345 344 343 343 343 344 344 346 349 348 346 346 343 342 341 342 342 342 342 342 344 341 343 345 344 343 344 344 341
332 341 342 343 344 342 344 342 343 344 344 346 348 345 345 344 341 341 341 342 342 342 342 343 344 344 344 342 343 342 343 344
318 335 343 342 342 343 343 344 342 344 344 343 349 346 345 342 341 339 339 341 341 341 341 341 342 342 341 341 339 341 342 344
313 318 338 343 341 342 343 343 344 345 343 343 344 347 345 343 340 338 339 341 342 342 343 342 341 341 340 341 341 342 342 340
312 313 320 340 342 341 341 341 344 343 344 342 342 346 345 342 340 338 340 341 341 340 340 336 336 338 338 337 337 339 340 338
312 313 316 324 340 342 344 343 343 343 343 342 341 344 345 341 339 339 340 339 339 337 336 337 334 335 334 334 337 336 338 337
313 312 316 324 332 342 341 340 341 341 341 341 342 341 344 342 339 340 340 337 337 335 334 337 336 335 332 330 332 335 335 336
313 312 313 315 319 332 338 339 339 340 340 340 342 339 343 342 339 339 337 336 335 335 334 335 334 334 329 326 328 330 331 333
317 311 312 312 314 329 337 340 342 340 341 341 342 340 340 342 342 339 334 335 335 334 336 333 332 334 329 327 321 322 326 332
317 313 311 312 315 323 335 336 339 338 340 339 341 340 337 339 342 340 336 337 332 332 336 334 329 330 334 328 321 319 324 327
319 316 311 311 313 319 331 331 329 335 337 340 340 339 338 336 340 341 339 338 336 333 337 336 334 326 332 331 332 329 322 319
315 313 311 311 312 317 330 332 333 336 336 338 340 339 337 335 337 338 337 336 339 337 336 338 336 332 330 331 330 329 330 324
308 313 309 310 311 316 333 336 334 333 336 337 338 338 335 334 335 336 337 336 336 335 336 338 337 335 332 331 329 326 324 325
304 313 307 309 310 316 333 336 336 337 335 337 336 335 332 333 334 333 334 336 336 336 334 334 337 336 335 332 332 331 330 327
298 307 308 308 310 316 331 336 335 336 338 338 338 337 335 335 333 334 335 336 335 335 333 334 339 339 337 335 334 333 332 330
Wind_Speed
7 11 10 4 1 4 5 7 9 10 8 9 9 10 10 11 11 10 10 8 9 11 12 13 12 13 12 12 10 11 10 6
9 9 8 9 9 4 2 4 5 9 9 7 7 6 7 9 10 9 10 9 10 12 12 12 12 12 11 10 7 5 6 10
8 9 8 7 6 6 6 4 2 4 8 9 8 10 11 12 8 11 9 10 10 12 12 12 10 9 10 9 9 7 8 6
9 9 9 8 7 5 8 9 10 11 12 13 11 10 11 11 8 8 8 7 9 11 10 12 12 9 7 8 7 8 8 7
11 10 10 11 8 6 5 4 6 8 13 11 12 8 8 8 7 7 8 8 8 10 9 8 11 6 8 8 9 9 5 7
12 13 12 12 8 8 7 6 6 6 7 10 9 8 9 8 7 9 9 8 9 10 8 9 7 7 12 9 8 8 6 3
12 14 14 13 13 10 10 7 9 10 8 9 11 10 10 9 8 8 9 9 8 9 9 9 11 11 9 8 8 6 7 4
12 13 16 16 15 16 12 11 10 10 9 9 14 11 10 10 9 9 9 8 9 9 10 10 9 8 7 7 8 8 8 6
15 14 15 18 19 16 14 14 14 14 11 12 13 14 12 12 10 10 9 9 11 9 9 8 8 8 11 9 7 7 6 5
18 15 15 17 18 16 14 14 15 14 13 12 14 16 14 13 11 11 10 9 10 9 10 9 8 8 7 6 7 6 9 8
21 18 18 17 18 17 16 17 15 15 14 14 17 17 17 13 11 11 12 10 10 8 8 10 8 8 8 7 6 6 7 7
23 19 19 17 14 15 15 15 15 13 14 14 19 16 19 15 12 13 13 11 11 10 11 11 10 9 7 6 5 5 6 7
24 23 21 16 15 15 15 16 15 15 15 18 18 16 19 18 13 13 13 13 13 14 12 13 10 11 7 4 2 5 7 7
28 25 23 19 16 15 15 15 15 15 13 16 18 18 20 18 16 15 16 12 15 14 14 11 8 8 10 10 5 3 4 7
27 25 26 21 21 16 15 11 11 14 15 15 18 19 20 19 20 15 16 14 12 14 15 17 10 9 14 8 5 7 8 8
30 27 24 21 21 19 22 16 16 14 14 14 15 22 19 19 19 17 16 14 16 15 14 15 14 11 12 12 9 6 6 5
30 25 23 23 20 22 17 21 15 18 12 18 17 16 20 18 19 19 16 14 15 16 16 16 13 11 12 12 9 8 8 6
30 24 22 23 22 23 23 23 20 15 22 15 14 13 14 18 19 18 16 15 16 16 16 18 15 13 11 13 10 11 10 8
25 23 20 22 22 22 24 24 23 24 18 14 14 12 12 16 19 18 15 17 16 15 16 16 16 14 16 11 9 9 9 8
25 26 17 18 21 22 21 23 15 15 14 10 13 13 14 17 17 17 18 17 15 15 13 12 15 15 18 15 10 10 10 10
Wind_Direction
181 183 177 135 141 180 174 186 170 164 166 154 154 154 158 158 161 168 170 165 149 145 142 140 141 140 138 145 171 181 147 147
186 185 182 188 194 168 192 182 189 164 154 151 152 155 162 163 158 166 163 157 151 145 148 150 147 138 137 143 158 158 160 145
193 190 181 182 219 189 185 191 178 152 153 143 159 191 187 169 173 149 163 159 158 158 155 150 137 131 135 140 167 165 157 176
216 197 189 188 199 207 210 213 208 206 195 181 195 199 200 202 149 158 157 144 143 152 146 142 159 167 158 157 193 169 179 174
226 208 196 196 195 196 204 193 216 209 203 190 205 193 188 199 169 173 168 171 175 169 154 169 166 184 152 197 204 177 164 203
236 226 206 207 195 192 198 202 198 197 211 203 202 200 187 193 190 180 180 183 172 181 173 162 176 187 188 194 190 195 187 202
280 229 224 207 208 195 194 197 207 201 199 203 208 201 194 190 189 183 185 181 183 186 168 182 185 190 187 196 200 205 183 161
280 260 228 226 213 202 194 195 200 203 199 203 215 209 192 192 185 190 185 181 190 185 178 181 181 179 190 196 197 208 205 175
281 270 248 229 227 219 199 194 201 199 203 195 208 212 198 194 186 192 185 181 183 173 181 195 184 185 196 194 209 195 192 189
284 277 263 235 230 226 220 210 191 205 194 200 194 208 203 199 187 189 184 183 183 182 169 177 177 189 189 174 195 195 186 176
280 272 259 248 230 229 219 221 213 199 196 193 199 201 202 203 192 186 178 183 185 186 187 182 181 188 184 189 190 191 209 187
272 262 258 247 236 222 219 218 215 208 203 199 190 198 197 203 197 184 186 185 185 186 184 200 187 184 172 184 181 202 193 217
258 260 255 249 238 215 211 209 206 211 204 198 197 193 201 196 197 183 193 190 184 187 190 198 196 187 138 143 158 194 202 222
274 249 248 244 241 225 212 210 201 206 201 198 196 187 198 197 196 183 192 188 187 189 196 192 193 168 194 175 187 200 226 220
276 254 251 240 234 228 215 215 209 202 199 202 193 194 192 203 197 190 188 192 189 190 193 194 180 201 219 186 178 226 179 193
294 263 242 238 238 239 216 200 200 210 206 201 194 195 196 190 202 197 184 196 190 191 195 196 201 189 209 223 237 263 190 155
305 268 238 241 230 238 220 214 202 208 193 205 192 190 197 191 198 196 189 197 196 190 198 200 198 196 207 208 206 220 240 262
317 269 237 238 227 232 218 214 205 206 201 191 193 186 186 194 197 197 193 193 195 195 195 198 204 210 189 218 210 210 218 221
321 301 240 235 225 227 212 213 211 203 186 185 185 184 192 191 192 195 195 192 190 189 193 196 200 204 208 205 210 217 226 222
331 331 246 234 219 220 214 215 212 215 206 179 197 197 200 187 192 196 195 191 189 188 194 196 202 205 207 211 214 217 215 221